Hourly Data Report for May 22, 2004

TORONTO CITY
ONTARIO

43°40'00.000" N
79°24'00.000" W
112.50 m
6158355
71508
XTO

Download Data

Hourly Data (May 2004)
Hourly Data Report for May 22, 2004
TIME
LST
Temp Definition
°C
Dew Point Definition
°C
Rel Hum Definition
%
Precip. Amount Definition
mm

Wind Dir Definition
10's deg

Wind Spd Definition
km/h
Visibility Definition
km
Stn Press Definition
kPa
Hmdx Definition


Wind Chill Definition


Weather Definition


00:00 14.1 6.2 59   LegendMM LegendMM LegendMM 100.26     LegendNANA
01:00 14.4 5.0 53   LegendMM LegendMM LegendMM 100.21     LegendNANA
02:00 13.2 6.9 66   LegendMM LegendMM LegendMM 100.20     LegendNANA
03:00 12.7 7.0 68   LegendMM LegendMM LegendMM 100.10     LegendNANA
04:00 12.6 5.8 63   LegendMM LegendMM LegendMM 100.05     LegendNANA
05:00 12.3 5.1 61   LegendMM LegendMM LegendMM 100.05     LegendNANA
06:00 12.4 5.2 61   LegendMM LegendMM LegendMM 100.13     LegendNANA
07:00 12.6 4.8 59   LegendMM LegendMM LegendMM 100.10     LegendNANA
08:00 12.7 6.0 64   LegendMM LegendMM LegendMM 100.10     LegendNANA
09:00 13.2 5.7 60   LegendMM LegendMM LegendMM 100.09     LegendNANA
10:00 13.5 5.0 56   LegendMM LegendMM LegendMM 100.03     LegendNANA
11:00 12.2 6.4 68   LegendMM LegendMM LegendMM 100.06     LegendNANA
12:00 13.3 6.1 62   LegendMM LegendMM LegendMM 99.91     LegendNANA
13:00 13.8 4.8 55   LegendMM LegendMM LegendMM 99.91     LegendNANA
14:00 13.6 4.7 55   LegendMM LegendMM LegendMM 99.80     LegendNANA
15:00 12.6 5.5 62   LegendMM LegendMM LegendMM 99.75     LegendNANA
16:00 11.9 5.4 64   LegendMM LegendMM LegendMM 99.70     LegendNANA
17:00 11.3 7.6 78   LegendMM LegendMM LegendMM 99.56     LegendNANA
18:00 10.9 8.5 85   LegendMM LegendMM LegendMM 99.51     LegendNANA
19:00 11.2 10.0 92   LegendMM LegendMM LegendMM 99.49     LegendNANA
20:00 11.1 10.5 96   LegendMM LegendMM LegendMM 99.60     LegendNANA
21:00 11.8 11.4 97   LegendMM LegendMM LegendMM 99.48     LegendNANA
22:00 11.7 11.3 97   LegendMM LegendMM LegendMM 99.46     LegendNANA
23:00 12.0 11.7 98   LegendMM LegendMM LegendMM 99.49     LegendNANA

Notes on Data Quality.

Legend

  • E = Estimated
  • M = Missing
  • NA = Not Available*
  • [empty] = Indicates an unobserved value
Date modified: